Flag for Germany Weather past 2 weeks in Stuhr, Lower Saxony, Germany

Now
57 °F

Passing clouds.


Feels Like: 55 °F
Forecast: 52 / 72 °F
Wind: 12 mph from Southwest

Location: Bremen Airport

Current Time: May 4, 2015 at 2:10:17 AM

Latest Report: May 4, 2015 at 1:20 AM


Visibility: N/A

Pressure: 29.59 "Hg

Humidity: 94%

Dew point: 55 °F

Location of StuhrLocation

Historic Weather in Stuhr — Graph

°F

Stuhr temperature yesterday

Maximum temperature yesterday: 64 °F (at 12:50 PM)
Minimum temperature yesterday: 41 °F (at 12:50 AM)
Average temperature yesterday: 53 °F

Past Weeks' High & Low Weather Summary

 TemperatureHumidityPressure
High66 °F (Apr 24, 4:20 PM)100% (Apr 19, 3:50 AM)30.42 "Hg (Apr 19, 3:50 AM)
Low30 °F (Apr 28, 4:50 AM)31% (Apr 19, 5:20 PM)29.56 "Hg (May 3, 5:20 PM)
Average49 °F75%29.97 "Hg
* Reported Apr 19 12:20 AM — May 4 12:50 AM, Stuhr, Weather by CustomWeather, © 2015

Note: Actual official high and low records may vary slightly from our data, if they occured in-between our weather recording intervals... More about our weather records

Advertising

Stuhr weather history for previous 24 hours

 ConditionsComfort  
Time TempWeatherWind HumidityBarometerVisibility
12:50 AM
Mon, May 4
57 °FPassing clouds.9 mph94%29.56 "HgN/A
12:20 AM57 °FPassing clouds.10 mph100%29.56 "HgN/A
11:50 PM
Sun, May 3
59 °FPartly cloudy.10 mph94%29.56 "HgN/A
10:50 PM57 °FPassing clouds.10 mph100%29.56 "HgN/A
10:20 PM57 °FPassing clouds.8 mph100%29.56 "HgN/A
9:50 PM57 °FDrizzle. Broken clouds.8 mph94%29.56 "Hg5 mi
9:20 PM57 °FDrizzle. Broken clouds.12 mph94%29.56 "HgN/A
8:50 PM57 °FBroken clouds.12 mph94%29.56 "HgN/A
8:20 PM55 °FBroken clouds.10 mph100%29.56 "HgN/A
7:50 PM55 °FLight rain. More clouds than sun.10 mph100%29.56 "Hg5 mi
7:20 PM57 °FLight rain. More clouds than sun.12 mph94%29.56 "HgN/A
6:50 PM57 °FLight rain. More clouds than sun.16 mph88%29.56 "HgN/A
6:20 PM59 °FLight rain. Mostly cloudy.17 mph77%29.56 "HgN/A
5:50 PM63 °FPartly sunny.18 mph64%29.56 "HgN/A
5:20 PM63 °FPartly sunny.15 mph64%29.56 "HgN/A
4:50 PM63 °FPartly sunny.15 mph64%29.59 "HgN/A
4:20 PM64 °FPartly sunny.16 mph56%29.59 "HgN/A
3:50 PM64 °FPartly sunny.16 mph56%29.59 "HgN/A
3:20 PM64 °FBroken clouds.17 mph52%29.62 "HgN/A
2:50 PM64 °FPartly sunny.18 mph56%29.62 "HgN/A
2:20 PM64 °FBroken clouds.18 mph49%29.65 "HgN/A
1:50 PM63 °FBroken clouds.17 mph52%29.65 "HgN/A
1:20 PM64 °FBroken clouds.17 mph49%29.65 "HgN/A
12:50 PM64 °FScattered clouds.16 mph46%29.68 "HgN/A
12:20 PM63 °FPassing clouds.15 mph49%29.68 "HgN/A
11:50 AM61 °FPassing clouds.14 mph55%29.71 "HgN/A
11:20 AM59 °FPassing clouds.14 mph51%29.71 "HgN/A
10:50 AM57 °FPassing clouds.12 mph55%29.74 "HgN/A
10:20 AM55 °FPassing clouds.13 mph55%29.74 "HgN/A
9:50 AM55 °FSunny.14 mph55%29.74 "Hg10 mi
9:20 AM52 °FCool.13 mph58%29.74 "HgN/A
8:50 AM50 °FSunny.12 mph62%29.77 "Hg10 mi
8:20 AM48 °FPassing clouds.9 mph62%29.80 "HgN/A
7:50 AM46 °FSunny.8 mph71%29.80 "Hg10 mi
7:20 AM45 °FSunny.9 mph71%29.80 "Hg10 mi
6:50 AM43 °FSunny.9 mph76%29.80 "Hg10 mi
6:20 AM43 °FClear.10 mph76%29.80 "Hg10 mi
5:50 AM43 °FClear.9 mph76%29.80 "Hg10 mi
5:20 AM43 °FClear.9 mph76%29.80 "Hg10 mi
4:50 AM43 °FClear.8 mph76%29.80 "Hg10 mi
4:20 AM43 °FClear.8 mph76%29.83 "Hg10 mi
3:50 AM43 °FClear.9 mph76%29.83 "Hg10 mi
3:20 AM41 °FClear.9 mph81%29.83 "Hg10 mi
2:50 AM41 °FClear.9 mph81%29.86 "Hg10 mi
2:20 AM41 °FClear.8 mph76%29.86 "Hg10 mi
Weather by CustomWeather, © 2015

See weather overviewHow to use our weather pages